Skip Page Navigation
NASA JPL Caltech
NASA Logo - Jet Propulsion Laboratory + View the NASA Portal
+ Center for Near-Earth Object Studies
JPL Home Earth Solar System Stars & Galaxies Technology
JPL Solar System Dynamics
BODIES ORBITS EPHEMERIDES TOOLS PHYSICAL DATA DISCOVERY FAQ SITE MAP
JPL Small-Body Database Browser
Search: [ help ]  
129004 (2004 TS286)
Classification: Main-belt Asteroid          SPK-ID: 2129004
Ephemeris | Orbit Diagram | Orbital Elements | Mission Design | Physical Parameters | Discovery Circumstances ]

[ show orbit diagram ]
Orbital Elements at Epoch 2459000.5 (2020-May-31.0) TDB
Reference: JPL 15 (heliocentric ecliptic J2000)
 Element Value Uncertainty (1-sigma)   Units 
e .1966162195564457 6.8648e-08  
a 2.561946707603831 1.6282e-08 au
q 2.058226431249683 1.8377e-07 au
i 3.474416315306883 6.0508e-06 deg
node 161.7483840811457 6.2569e-05 deg
peri 145.9298298224366 6.5408e-05 deg
M 347.0745823884438 1.3352e-05 deg
tp 2459054.276885595961
(2020-Jul-23.77688560)
5.5283e-05 TDB
period 1497.799096041358
4.10
1.4278e-05
3.909e-08
d
yr
n .2403526620836334 2.2913e-09 deg/d
Q 3.06566698395798 1.9483e-08 au
  Orbit Determination Parameters
   # obs. used (total)      459  
   data-arc span      10120 days (27.71 yr)  
   first obs. used      1992-11-21  
   last obs. used      2020-08-06  
   planetary ephem.      DE431  
   SB-pert. ephem.      SB431-N16  
   condition code      0  
   norm. resid. RMS      .5759  
   source      ORB  
   producer      Otto Matic  
   solution date      2020-Aug-25 10:39:19  

Additional Information
 Earth MOID = 1.04465 au 
 Jupiter MOID = 2.20212 au 
 T_jup = 3.404 
[ show covariance matrix ]

Ephemeris | Orbit Diagram | Orbital Elements | Mission Design | Physical Parameters | Discovery Circumstances ]

Physical Parameter Table
Parameter Symbol Value Units Sigma Reference Notes
absolute magnitude H 16.3   n/a MPO432770  

129004 (2004 TS286)          Discovered 2004-Oct-09 by LINEAR at Socorro
Reference: 20060314/Numbers.arcLast Updated: 2006-03-23

Alternate Designations
 2004 TS286 = 2000 UU111 
Ephemeris | Orbit Diagram | Orbital Elements | Mission Design | Physical Parameters | Discovery Circumstances ]
ABOUT SSD CREDITS/AWARDS PRIVACY/COPYRIGHT GLOSSARY LINKS
FirstGov 2020-Oct-31 01:35 UT
(server date/time)  
NASA Home Page
Site Manager:   Ryan S. Park
Webmaster  Alan B. Chamberlin